{"data":{"norad_id":48064,"epoch":"2026-09-19T21:20:10.432896Z","epoch_age_seconds":70949,"freshness":"FRESH","line1":"1 48064U 21025Y   26262.88900964 -.00000101  00000+0 -31225-3 0  9993","line2":"2 48064  87.8918 301.3861 0001436  79.6853 280.4438 13.13469651266001","mean_motion":13.13469651,"eccentricity":0.0001436,"inclination_deg":87.8918,"raan_deg":301.3861,"arg_perigee_deg":79.6853,"mean_anomaly_deg":280.4438,"bstar":-0.00031225,"rev_number":26600,"period_min":109.63329064388,"perigee_km":1208.6771210358,"apogee_km":1210.8563669911,"semimajor_km":7587.9037440134,"source":"CELESTRAK","updated_at":"2026-09-20T09:00:44.588636Z"}}